Regional Weather Roundup
Issued by NWS

Home | Current Version | Previous Version | Text Only | Print | Product List | Glossary On
Versions: 1 2 3 4 5 6 7 8 9 10 11 12 13 14 15 16 17 18 19 20 21 22 23 24 25 26 27 28 29 30 31 32 33 34 35 36 37 38 39 40 41 42 43 44 45 46 47 48 49 50
880
ASUS43 KMKX 251300
RWRWI

WISCONSIN REGIONAL WEATHER ROUNDUP
NATIONAL WEATHER SERVICE MILWAUKEE/SULLIVAN WI
800 AM CDT TUE APR 25 2017

NOTE: "FAIR" INDICATES FEW OR NO CLOUDS BELOW 12,000 FEET WITH NO
SIGNIFICANT WEATHER AND/OR OBSTRUCTIONS TO VISIBILITY.

WIZ001-002-006>008-014>016-023>028-251400-
NORTHWEST WISCONSIN

CITY           SKY/WX    TMP DP  RH WIND       PRES   REMARKS
SUPERIOR ARPT  CLOUDY    39  37  94 NE9       29.59S WCI  32
ASHLAND        CLOUDY    43  38  82 N5        29.58S
HAYWARD        CLOUDY    57  34  41 SE7       29.55S
SIREN          LGT RAIN  47  42  82 CALM      29.53S
CUMBERLAND     CLOUDY    55  32  41 SE5       29.54R
RICE LAKE      CLOUDY    57  34  41 SE10      29.55R
CHETEK         CLOUDY    56  36  46 S6        29.55S
LADYSMITH      CLOUDY    56  35  44 SE9       29.58F
EAU CLAIRE     CLOUDY    59  34  39 S8        29.55R
MENOMONIE      CLOUDY    56  37  48 E6        29.54R
NEW RICHMOND   PTSUNNY   59  33  37 SE9       29.51S
OSCEOLA        CLOUDY    58  38  47 SE5       29.54R
$$

WIZ003>005-009-010-017-018-251400-
NORTH CENTRAL WISCONSIN

CITY           SKY/WX    TMP DP  RH WIND       PRES   REMARKS
MANITOWISH WTR CLOUDY    51  35  53 SE6       29.62S
ARBOR VITAE    CLOUDY    55  36  49 S8        29.63R
WOODRUFF       CLOUDY    55  36  49 S8        29.63R
RHINELANDER    PTSUNNY   56  36  47 SE13G20   29.65S
EAGLE RIVER    CLOUDY    52  32  46 S7        29.65S
LAND O LAKES   CLOUDY    51  32  48 S6        29.67R
PHILLIPS       CLOUDY    55  36  49 SE9       29.59S
TOMAHAWK       CLOUDY    52  35  52 SE6       29.64S
MEDFORD        CLOUDY    52  36  53 SE10      29.61S
MERRILL        PTSUNNY   52  36  55 SE5       29.65S
$$

WIZ029-030-035-036-043>047-251400-
CENTRAL WISCONSIN

CITY           SKY/WX    TMP DP  RH WIND       PRES   REMARKS
WAUSAU         MOSUNNY   54  37  52 SE10      29.63S
MOSINEE        PTSUNNY   54  37  54 SE10      29.65S
MARSHFIELD     PTSUNNY   54  37  52 SE9       29.61S
STEVENS POINT  PTSUNNY   54  37  52 SE9       29.65S
WAUPACA        CLOUDY    55  40  58 E3        29.67S
WAUTOMA        PTSUNNY   57  42  57 SE9       29.66S
WISC RAPIDS    NOT AVBL
CAMP DOUGLAS   NOT AVBL
$$

WIZ011>013-019>022-031-037>040-048>050-251400-
NORTHEAST WISCONSIN

CITY           SKY/WX    TMP DP  RH WIND       PRES   REMARKS
ANTIGO         CLOUDY    47  36  64 SE10      29.68S
SHAWANO        CLOUDY    54  39  57 SE5       29.69S
OCONTO         MOSUNNY   52  41  65 S7        29.71S
STURGEON BAY   CLOUDY    51  42  71 S17G25    29.73S
GREEN BAY      PTSUNNY   54  45  71 SE12      29.70S
MANITOWOC      NOT AVBL
APPLETON       PTSUNNY   55  39  54 SE10      29.67S
CLINTONVILLE   CLOUDY    52  37  58 SE5       29.68S
OSHKOSH        MOSUNNY   57  43  59 S10       29.67S
$$

WIZ032>034-041-042-053>061-251400-
SOUTHWEST WISCONSIN

CITY           SKY/WX    TMP DP  RH WIND       PRES   REMARKS
LA CROSSE      MOSUNNY   61  36  39 S8        29.56S
SPARTA         PTSUNNY   60  36  41 S8        29.59F
VIROQUA        SUNNY     56  35  44 S12       29.59S
BOSCOBEL       SUNNY     60  37  42 CALM      29.60S
PRAIRIE DU CHI SUNNY     56  35  43 E7        29.59S
PLATTEVILLE    MOSUNNY   54  41  60 SE6       29.62S
$$

WIZ056-057-062-063-064-067-068-251400-
SOUTH CENTRAL WISCONSIN

CITY           SKY/WX    TMP DP  RH WIND       PRES   REMARKS
REEDSBURG      SUNNY     56  39  52 SE3       29.62S
BARABOO/DELLS  SUNNY     56  39  54 SE8       29.63R
LONE ROCK      NOT AVBL
MINERAL POINT  SUNNY     54  37  54 SE10      29.63R
MADISON        MOSUNNY   58  41  53 S9        29.65S
MIDDLETON      SUNNY     58  41  54 SE7       29.65S
WATERTOWN      MOSUNNY   56  45  65 SE8       29.68R
MONROE         SUNNY     54  41  62 S12       29.65R
JANESVILLE     MOSUNNY   59  45  58 SE12      29.66S
$$

WIZ051-052-058>065-066-070>072-251400-
SOUTHEAST WISCONSIN

CITY           SKY/WX    TMP DP  RH WIND       PRES   REMARKS
MILWAUKEE      CLOUDY    56  47  71 SE8       29.72R
WAUKESHA       SUNNY     54  45  71 SE12      29.72R
MILWAUKEE/TIMM SUNNY     55  43  62 SE6       29.72R
RACINE         MOSUNNY   51  44  77 S14G21    29.73S
KENOSHA        CLOUDY    56  48  74 S9        29.71R
FOND DU LAC    SUNNY     57  42  57 SE14      29.68S
SHEBOYGAN      CLOUDY    50  43  77 S12       29.73S
WEST BEND      SUNNY     52  43  71 SE6       29.71S
JUNEAU         MOSUNNY   56  44  66 SE10      29.69R
$$

LSZ147-162-251400-
LAKE SUPERIOR

STATION/POSITION TIME  TEMP    WIND        PRES    WAVE
                       AIR SEA DIR/SP/G            HT/PER
                 (UTC) (F)     (DEG/KT/KT) (MB)    (FT/S)
DEVILS ISLAND    1200   38      60/ 14/ 15 1002.8F
PORT WING        1140   38      20/  8/  9 1002.4R
SAXON HARBOR     1240   42     350/  2/  5 1001.4S
$$

LMZ867-665-643>646-251400-
LAKE MICHIGAN

STATION/POSITION TIME  TEMP    WIND        PRES    WAVE
                       AIR SEA DIR/SP/G            HT/PER
                 (UTC) (F)     (DEG/KT/KT) (MB)    (FT/S)
CHAMBERS ISLAND  1240   52     130/  7/ 14 1006.4S
N MID LAKE BUOY  1150   41 37  120/ 10/ 10 1008.9F   1/ 4
NORTHPORT PIER   1240   46     150/ 11/ 15 1007.5S
KEWAUNEE LAKESHO 1230   47     170/  9/ 10 1006.7R
SHEBOYGAN LAKESH 1200   46     170/  9/ 10 1006.8R
PORT WASHINGTON  1230   49     180/  6/  8 1007.8R
MILWAUKEE LAKESH 1230   47     130/  9/ 11   N/A
S MID LAKE BUOY  1150   45 41  100/ 12/ 14 1007.4R   1/ 3
KENOSHA   LAKESH 1200   48     170/ 14/ 16 1006.1
$$

TC  - TEMPERATURE IN CELSIUS
VSB - VISIBILITY IN STATUTE MILES
WCI - WIND CHILL INDEX
HX  - HEAT INDEX





USA.gov is the U.S. government's official web portal to all federal, state and local government web resources and services.